| time (UTC) | temp F | wind direction | speed MPH | gust MPH | rain 1hr in | rain 24hr in | rain mn in | humidity % | barometer mb |
| 20260906202018 | 83 | 76 | 0.0 | 0.0 | 0.00 | 0.39 | 0.36 | 1 | 1012.6 |
| 20260906201033 | 83 | 76 | 0.0 | 0.0 | 0.00 | 0.39 | 0.36 | 1 | 1012.4 |
| 20260906200026 | 83 | 76 | 0.0 | 0.0 | 0.00 | 0.39 | 0.36 | 1 | 1012.3 |
| 20260906194958 | 82 | 76 | 0.0 | 0.0 | 0.00 | 0.39 | 0.36 | 1 | 1012.5 |
| 20260906192902 | 82 | 88 | 1.0 | 3.0 | 0.00 | 0.39 | 0.36 | 1 | 1012.1 |
| 20260906191921 | 82 | 98 | 0.0 | 8.0 | 0.00 | 0.39 | 0.36 | 1 | 1012.4 |
| 20260906190921 | 82 | 96 | 0.0 | 0.0 | 0.00 | 0.39 | 0.36 | 1 | 1012.7 |
| 20260906185850 | 83 | 146 | 0.0 | 1.0 | 0.00 | 0.39 | 0.36 | 1 | 1012.7 |
| 20260906184914 | 83 | 146 | 0.0 | 3.0 | 0.06 | 0.39 | 0.36 | 1 | 1012.6 |
| 20260906183914 | 85 | 259 | 1.0 | 5.0 | 0.51 | 0.36 | 0.35 | 1 | 1012.6 |
| 20260906182846 | 89 | 201 | 1.0 | 5.0 | 2.25 | 0.19 | 0.20 | 22 | 1012.9 |
| 20260906181843 | 93 | 290 | 0.0 | 3.0 | 0.00 | 0.03 | 0.00 | 53 | 1012.8 |
| 20260906180832 | 94 | 60 | 0.0 | 3.0 | 0.00 | 0.03 | 0.00 | 55 | 1012.6 |
| 20260906175849 | 95 | 82 | 0.0 | 3.0 | 0.00 | 0.03 | 0.00 | 56 | 1012.6 |
| 20260906174837 | 95 | 82 | 1.0 | 6.0 | 0.00 | 0.03 | 0.00 | 55 | 1012.6 |
| 20260906173814 | 95 | 68 | 0.0 | 6.0 | 0.00 | 0.03 | 0.00 | 56 | 1012.7 |
| 20260906172755 | 94 | 152 | 1.0 | 5.0 | 0.00 | 0.03 | 0.00 | 55 | 1013.0 |
| 20260906170601 | 93 | 138 | 0.0 | 2.0 | 0.00 | 0.03 | 0.00 | 52 | 1013.3 |
| 20260906165612 | 92 | 142 | 0.0 | 1.0 | 0.00 | 0.03 | 0.00 | 49 | 1013.4 |
| 20260906163446 | 89 | 153 | 0.0 | 1.0 | 0.00 | 0.03 | 0.00 | 30 | 1013.6 |
| 20260906162447 | 88 | 152 | 0.0 | 1.0 | 0.00 | 0.03 | 0.00 | 16 | 1013.7 |
| 20260906160410 | 85 | 140 | 0.0 | 1.0 | 0.00 | 0.03 | 0.00 | 1 | 1013.6 |
| 20260906154252 | 84 | 145 | 0.0 | 0.0 | 0.00 | 0.03 | 0.00 | 1 | 1013.8 |
| 20260906153258 | 84 | 145 | 0.0 | 1.0 | 0.00 | 0.03 | 0.00 | 1 | 1013.8 |
| 20260906152306 | 83 | 336 | 0.0 | 0.0 | 0.00 | 0.03 | 0.00 | 1 | 1013.8 |
| 20260906151312 | 83 | 336 | 0.0 | 0.0 | 0.00 | 0.03 | 0.00 | 1 | 1013.8 |
| 20260906150251 | 83 | 336 | 0.0 | 0.0 | 0.00 | 0.03 | 0.00 | 1 | 1013.7 |
| 20260906145235 | 82 | 107 | 0.0 | 2.0 | 0.00 | 0.03 | 0.00 | 1 | 1013.7 |
| 20260906144214 | 82 | 45 | 0.0 | 1.0 | 0.00 | 0.03 | 0.00 | 1 | 1013.7 |
| 20260906142056 | 80 | 45 | 0.0 | 2.0 | 0.00 | 0.03 | 0.00 | 1 | 1013.7 |
| 20260906141032 | 80 | 0 | 0.0 | 0.0 | 0.00 | 0.03 | 0.00 | 1 | 1013.7 |
| 20260906140040 | 79 | 0 | 0.0 | 1.0 | 0.00 | 0.03 | 0.00 | 1 | 1013.7 |
| 20260906135054 | 79 | 0 | 0.0 | 0.0 | 0.00 | 0.03 | 0.00 | 1 | 1013.6 |
| 20260906134108 | 79 | 0 | 0.0 | 0.0 | 0.00 | 0.03 | 0.00 | 1 | 1013.5 |
| 20260906131919 | 77 | 0 | 0.0 | 0.0 | 0.00 | 0.03 | 0.00 | 1 | 1013.4 |
| 20260906130934 | 77 | 0 | 0.0 | 0.0 | 0.00 | 0.03 | 0.00 | 1 | 1013.2 |
| 20260906125957 | 77 | 0 | 0.0 | 0.0 | 0.00 | 0.03 | 0.00 | 1 | 1013.1 |
| 20260906124924 | 77 | 0 | 0.0 | 0.0 | 0.00 | 0.03 | 0.00 | 1 | 1012.9 |
| 20260906123855 | 77 | 0 | 0.0 | 0.0 | 0.00 | 0.03 | 0.00 | 1 | 1012.8 |
| 20260906121731 | 77 | 0 | 0.0 | 0.0 | 0.00 | 0.03 | 0.00 | 1 | 1012.5 |
| 20260906120703 | 77 | 0 | 0.0 | 0.0 | 0.00 | 0.03 | 0.00 | 1 | 1012.5 |
| 20260906115639 | 77 | 0 | 0.0 | 0.0 | 0.00 | 0.03 | 0.00 | 1 | 1012.5 |
| 20260906114656 | 77 | 0 | 0.0 | 0.0 | 0.00 | 0.03 | 0.00 | 1 | 1012.5 |
| 20260906111421 | 77 | 0 | 0.0 | 0.0 | 0.00 | 0.03 | 0.00 | 1 | 1012.0 |
| 20260906110432 | 77 | 0 | 0.0 | 0.0 | 0.00 | 0.03 | 0.00 | 1 | 1011.9 |
| 20260906105450 | 77 | 0 | 0.0 | 0.0 | 0.00 | 0.03 | 0.00 | 1 | 1011.8 |
| 20260906104512 | 77 | 0 | 0.0 | 0.0 | 0.00 | 0.03 | 0.00 | 1 | 1011.7 |
| 20260906103448 | 77 | 0 | 0.0 | 0.0 | 0.00 | 0.03 | 0.00 | 1 | 1011.7 |
| 20260906101254 | 77 | 0 | 0.0 | 0.0 | 0.00 | 0.03 | 0.00 | 1 | 1011.5 |
| 20260906100239 | 77 | 0 | 0.0 | 0.0 | 0.00 | 0.03 | 0.00 | 1 | 1011.4 |
| 20260906095255 | 77 | 0 | 0.0 | 0.0 | 0.00 | 0.03 | 0.00 | 1 | 1011.5 |
| 20260906094304 | 78 | 0 | 0.0 | 0.0 | 0.00 | 0.03 | 0.00 | 1 | 1011.6 |
| 20260906093245 | 78 | 0 | 0.0 | 0.0 | 0.00 | 0.03 | 0.00 | 1 | 1011.6 |
| 20260906092236 | 78 | 0 | 0.0 | 0.0 | 0.00 | 0.03 | 0.00 | 1 | 1011.6 |
| 20260906091227 | 78 | 0 | 0.0 | 0.0 | 0.00 | 0.03 | 0.00 | 1 | 1011.6 |
| 20260906090220 | 78 | 0 | 0.0 | 0.0 | 0.00 | 0.03 | 0.00 | 1 | 1011.4 |
| 20260906084047 | 78 | 0 | 0.0 | 0.0 | 0.00 | 0.03 | 0.00 | 1 | 1011.3 |
| 20260906081911 | 78 | 0 | 0.0 | 0.0 | 0.00 | 0.03 | 0.00 | 1 | 1011.5 |
| 20260906080903 | 78 | 0 | 0.0 | 0.0 | 0.00 | 0.03 | 0.00 | 1 | 1011.5 |
| 20260906074739 | 78 | 0 | 0.0 | 0.0 | 0.00 | 0.03 | 0.00 | 1 | 1011.6 |
| 20260906073714 | 78 | 0 | 0.0 | 0.0 | 0.00 | 0.03 | 0.00 | 1 | 1011.6 |
| 20260906072651 | 78 | 0 | 0.0 | 0.0 | 0.00 | 0.03 | 0.00 | 1 | 1011.7 |
| 20260906071629 | 78 | 0 | 0.0 | 0.0 | 0.00 | 0.03 | 0.00 | 1 | 1011.8 |
| 20260906070609 | 78 | 0 | 0.0 | 0.0 | 0.00 | 0.03 | 0.00 | 1 | 1011.8 |
| 20260906064444 | 78 | 0 | 0.0 | 0.0 | 0.00 | 0.03 | 0.00 | 1 | 1011.6 |
| 20260906063415 | 78 | 0 | 0.0 | 0.0 | 0.00 | 0.03 | 0.00 | 1 | 1011.8 |
| 20260906062426 | 78 | 0 | 0.0 | 0.0 | 0.00 | 0.03 | 0.00 | 1 | 1011.8 |
| 20260906061414 | 78 | 0 | 0.0 | 0.0 | 0.00 | 0.03 | 0.00 | 1 | 1011.7 |
| 20260906060408 | 78 | 0 | 0.0 | 0.0 | 0.00 | 0.03 | 0.00 | 1 | 1011.8 |
| 20260906054240 | 78 | 0 | 0.0 | 0.0 | 0.00 | 0.03 | 0.00 | 1 | 1011.8 |
| 20260906053240 | 78 | 0 | 0.0 | 0.0 | 0.00 | 0.03 | 0.00 | 1 | 1011.8 |
| 20260906052249 | 78 | 0 | 0.0 | 0.0 | 0.00 | 0.03 | 0.00 | 1 | 1011.9 |
| 20260906051253 | 78 | 0 | 0.0 | 0.0 | 0.00 | 0.03 | 0.00 | 1 | 1011.8 |
| 20260906050304 | 78 | 0 | 0.0 | 0.0 | 0.00 | 0.03 | 0.00 | 1 | 1011.8 |
| 20260906044108 | 78 | 0 | 0.0 | 0.0 | 0.00 | 0.03 | 0.03 | 1 | 1011.8 |
| 20260906043114 | 78 | 0 | 0.0 | 0.0 | 0.00 | 0.03 | 0.03 | 1 | 1011.8 |
| 20260906040936 | 78 | 0 | 0.0 | 0.0 | 0.00 | 0.03 | 0.03 | 1 | 1011.8 |
| 20260906035938 | 78 | 0 | 0.0 | 0.0 | 0.00 | 0.03 | 0.03 | 1 | 1012.0 |
| 20260906034922 | 78 | 0 | 0.0 | 0.0 | 0.00 | 0.03 | 0.03 | 1 | 1011.9 |
| 20260906033910 | 78 | 0 | 0.0 | 0.0 | 0.00 | 0.03 | 0.03 | 1 | 1011.9 |
| 20260906031750 | 79 | 0 | 0.0 | 0.0 | 0.00 | 0.03 | 0.03 | 1 | 1011.9 |
| 20260906025709 | 79 | 0 | 0.0 | 0.0 | 0.00 | 0.03 | 0.03 | 1 | 1011.8 |
| 20260906024641 | 79 | 0 | 0.0 | 0.0 | 0.00 | 0.03 | 0.03 | 1 | 1011.7 |
| 20260906023642 | 79 | 0 | 0.0 | 0.0 | 0.00 | 0.03 | 0.03 | 1 | 1011.5 |
| 20260906022659 | 79 | 0 | 0.0 | 0.0 | 0.00 | 0.03 | 0.03 | 1 | 1011.5 |
| 20260906021640 | 79 | 0 | 0.0 | 0.0 | 0.00 | 0.03 | 0.03 | 1 | 1011.4 |
| 20260906015509 | 79 | 0 | 0.0 | 0.0 | 0.00 | 0.03 | 0.03 | 1 | 1011.4 |
| 20260906014453 | 79 | 0 | 0.0 | 0.0 | 0.00 | 0.03 | 0.03 | 1 | 1011.1 |
| 20260906013447 | 79 | 0 | 0.0 | 0.0 | 0.00 | 0.03 | 0.03 | 1 | 1010.9 |
| 20260906011332 | 79 | 0 | 0.0 | 0.0 | 0.00 | 0.03 | 0.03 | 1 | 1010.8 |
| 20260906010351 | 79 | 0 | 0.0 | 0.0 | 0.00 | 0.03 | 0.03 | 1 | 1010.7 |
| 20260906005406 | 80 | 0 | 0.0 | 0.0 | 0.00 | 0.03 | 0.03 | 1 | 1010.6 |
| 20260906004405 | 80 | 0 | 0.0 | 0.0 | 0.00 | 0.03 | 0.03 | 1 | 1010.8 |
| 20260906003344 | 80 | 0 | 0.0 | 0.0 | 0.00 | 0.03 | 0.03 | 1 | 1011.1 |
| 20260906002357 | 80 | 0 | 0.0 | 0.0 | 0.00 | 0.03 | 0.03 | 1 | 1011.1 |
| 20260906001329 | 80 | 0 | 0.0 | 0.0 | 0.00 | 0.03 | 0.03 | 1 | 1011.3 |
| 20260905235145 | 81 | 340 | 0.0 | 0.0 | 0.00 | 0.02 | 0.02 | 1 | 1011.6 |
| 20260905232946 | 82 | 341 | 0.0 | 0.0 | 0.00 | 0.02 | 0.02 | 1 | 1011.6 |
| 20260905232010 | 82 | 341 | 0.0 | 0.0 | 0.00 | 0.02 | 0.02 | 1 | 1011.5 |
| 20260905231024 | 83 | 143 | 0.0 | 0.0 | 0.00 | 0.02 | 0.02 | 1 | 1011.5 |
| 20260905230020 | 83 | 143 | 0.0 | 0.0 | 0.00 | 0.02 | 0.02 | 1 | 1011.4 |
| 20260905225029 | 83 | 144 | 0.0 | 0.0 | 0.00 | 0.02 | 0.02 | 1 | 1011.3 |
| 20260905223958 | 83 | 144 | 0.0 | 0.0 | 0.00 | 0.02 | 0.02 | 1 | 1011.0 |
| 20260905222935 | 83 | 144 | 0.0 | 0.0 | 0.00 | 0.02 | 0.02 | 1 | 1011.2 |
| 20260905221941 | 84 | 144 | 0.0 | 0.0 | 0.00 | 0.02 | 0.02 | 1 | 1011.3 |
| 20260905220938 | 85 | 144 | 0.0 | 0.0 | 0.00 | 0.01 | 0.02 | 1 | 1010.9 |
| 20260905215904 | 85 | 144 | 0.0 | 0.0 | 0.00 | 0.01 | 0.01 | 1 | 1011.2 |
| 20260905214908 | 86 | 144 | 0.0 | 1.0 | 0.00 | 0.01 | 0.01 | 10 | 1011.5 |
| 20260905213913 | 87 | 144 | 0.0 | 3.0 | 0.00 | 0.01 | 0.01 | 27 | 1011.3 |
| 20260905212858 | 88 | 319 | 0.0 | 5.0 | 0.00 | 0.00 | 0.00 | 39 | 1011.1 |
| 20260905210809 | 91 | 313 | 0.0 | 4.0 | 0.00 | 0.00 | 0.00 | 55 | 1010.9 |
| 20260905205805 | 92 | 121 | 0.0 | 4.0 | 0.00 | 0.00 | 0.00 | 56 | 1010.9 |
| 20260905204829 | 94 | 84 | 0.0 | 0.0 | 0.00 | 0.00 | 0.00 | 56 | 1010.8 |
| 20260905203816 | 93 | 84 | 0.0 | 0.0 | 0.00 | 0.00 | 0.00 | 56 | 1010.7 |